FW3274 Weather Reports


Display with metric or nautical units.
time (UTC)temp
F
wind
direction
speed
MPH
gust
MPH
rain 1hr
in
rain 24hr
in
rain mn
in
humidity
%
barometer
mb
20260506001527 55 76 0.0 0.0 0.00 0.19 0.00 91 1009.4
20260506000026 55 74 0.0 0.0 0.00 0.19 0.00 91 1009.7
20260505234556 55 62 0.0 0.0 0.00 0.19 0.00 91 1009.8
20260505233022 56 67 0.0 0.0 0.00 0.19 0.00 91 1010.0
20260505231520 56 75 0.0 0.0 0.00 0.19 0.00 91 1010.1
20260505230018 56 74 0.0 0.0 0.00 0.19 0.00 92 1010.2
20260505224526 56 78 0.0 0.0 0.00 0.19 0.00 92 1010.4
20260505223016 56 80 0.0 0.0 0.00 0.19 0.00 92 1010.5
20260505221515 56 65 0.0 0.0 0.00 0.19 0.00 92 1010.5
20260505220014 56 65 0.0 0.0 0.00 0.19 0.19 92 1010.6
20260505214519 56 65 0.0 0.0 0.00 0.19 0.19 91 1010.6
20260505213013 56 65 0.0 0.0 0.00 0.19 0.19 91 1010.7
20260505211513 56 65 0.0 0.0 0.00 0.19 0.19 91 1010.9
20260505210014 56 67 0.0 0.0 0.00 0.19 0.19 91 1010.8
20260505204522 56 78 0.0 0.0 0.00 0.19 0.19 91 1010.8
20260505203012 56 74 0.0 0.0 0.00 0.19 0.19 91 1010.9
20260505201511 56 74 0.0 0.0 0.00 0.19 0.19 91 1011.0
20260505200020 56 67 0.0 0.0 0.00 0.19 0.19 91 1010.9
20260505194512 56 80 0.0 0.0 0.00 0.19 0.19 91 1010.9
20260505193010 56 60 0.0 0.0 0.00 0.19 0.19 91 1010.9
20260505191509 56 74 0.0 0.0 0.01 0.19 0.19 91 1010.9
20260505190007 56 86 0.0 0.0 0.02 0.19 0.19 91 1010.9
20260505184518 55 82 0.0 0.0 0.03 0.19 0.19 91 1010.8
20260505183022 56 85 0.0 0.0 0.03 0.19 0.19 91 1010.7
20260505181507 56 92 0.0 0.0 0.02 0.18 0.18 92 1010.5
20260505180007 56 86 0.0 0.0 0.01 0.17 0.17 92 1010.4
20260505174509 56 59 0.0 0.0 0.00 0.16 0.16 92 1010.5
20260505173017 56 77 0.0 0.0 0.01 0.16 0.16 91 1010.4
20260505171506 55 82 0.0 0.0 0.01 0.16 0.16 91 1010.3
20260505170008 56 64 0.0 0.0 0.05 0.16 0.16 91 1010.4
20260505164504 56 84 0.0 0.0 0.06 0.16 0.16 91 1010.3
20260505163003 56 79 0.0 0.0 0.05 0.15 0.15 91 1010.4
20260505161502 56 82 0.0 0.0 0.05 0.15 0.15 91 1010.6
20260505160109 56 59 0.0 0.0 0.01 0.11 0.11 90 1010.7
20260505153100 56 74 0.0 0.0 0.02 0.10 0.10 90 1010.5
20260505151608 56 76 0.0 0.0 0.04 0.10 0.10 90 1010.6
20260505124557 57 61 0.0 0.0 0.01 0.06 0.06 85 1011.3
20260505123049 57 106 0.0 3.0 0.00 0.05 0.05 85 1011.3
20260505121547 58 104 0.0 3.0 0.00 0.05 0.05 83 1011.3
20260505120050 59 88 0.0 2.0 0.01 0.05 0.05 81 1011.2
20260505114546 60 88 0.0 2.0 0.02 0.05 0.05 80 1011.0
20260505113045 60 65 0.0 2.0 0.02 0.05 0.05 82 1010.9
20260505111544 60 101 0.0 0.0 0.03 0.05 0.05 81 1010.9
20260505101544 62 53 0.0 0.0 0.02 0.02 0.02 80 1011.3
20260505100041 62 84 0.0 0.0 0.01 0.01 0.01 78 1011.1
20260505094539 62 86 0.0 0.0 0.00 0.00 0.00 76 1011.2
20260505093040 63 82 0.0 0.0 0.00 0.00 0.00 74 1011.1
20260505091539 63 84 0.0 0.0 0.00 0.00 0.00 72 1011.0
20260505090038 63 59 0.0 1.0 0.00 0.00 0.00 73 1011.0
20260505084545 63 88 0.0 1.0 0.00 0.00 0.00 72 1011.2
20260505083037 63 85 0.0 0.0 0.00 0.00 0.00 73 1011.2
20260505081536 62 93 0.0 1.0 0.00 0.00 0.00 74 1011.1
20260505080036 62 74 0.0 4.0 0.00 0.00 0.00 77 1010.9
20260505074536 62 51 0.0 0.0 0.00 0.00 0.00 78 1010.8
20260505073041 62 71 0.0 0.0 0.00 0.00 0.00 76 1010.8
20260505071534 62 77 0.0 1.0 0.00 0.00 0.00 75 1010.6
20260505070040 62 71 0.0 2.0 0.00 0.00 0.00 75 1010.6
20260505064533 62 74 0.0 3.0 0.00 0.00 0.00 75 1010.6
20260505063032 62 76 0.0 4.0 0.00 0.00 0.00 77 1010.6
20260505061537 62 75 0.0 3.0 0.00 0.00 0.00 78 1010.4
20260505060030 61 87 0.0 2.0 0.00 0.00 0.00 81 1010.3
20260505054534 60 77 0.0 2.0 0.00 0.00 0.00 82 1010.2
20260505053028 60 74 0.0 0.0 0.00 0.00 0.00 83 1010.1
20260505051525 59 77 0.0 0.0 0.00 0.00 0.00 84 1010.1
20260505041530 59 71 0.0 0.0 0.00 0.00 0.00 85 1010.3
20260505040023 59 67 0.0 0.0 0.00 0.00 0.00 85 1010.2
20260505034522 59 62 0.0 0.0 0.00 0.00 0.00 85 1010.3
20260505033016 59 60 0.0 0.0 0.00 0.00 0.00 84 1010.4
20260505031528 59 51 0.0 0.0 0.00 0.00 0.00 82 1010.5
20260505030012 59 83 0.0 0.0 0.00 0.00 0.00 84 1010.6
20260505024511 59 61 0.0 0.0 0.00 0.00 0.00 85 1010.7
20260505023011 59 60 0.0 0.0 0.00 0.00 0.00 86 1010.8
20260505021509 59 90 0.0 0.0 0.00 0.00 0.00 85 1010.8
20260505020006 59 63 0.0 0.0 0.00 0.00 0.00 85 1010.9
20260505014505 59 96 0.0 0.0 0.00 0.00 0.00 83 1011.1
20260505013003 58 57 0.0 0.0 0.00 0.00 0.00 80 1011.2
20260505011501 58 76 0.0 0.0 0.00 0.00 0.00 78 1011.4
20260505010059 58 78 0.0 0.0 0.00 0.00 0.00 71 1011.5
20260505004556 58 72 0.0 0.0 0.00 0.00 0.00 70 1011.7
20260505003055 58 59 0.0 0.0 0.00 0.00 0.00 70 1011.8